STARLINK-3308 (50846 NORAD) Tracking and Keplerian Element Data

This shows tracking and keplerian element data for the satellite.

Feedback or suggestion? Click here.




ElementValue
Catalog50846
NameSTARLINK-3308
Epoch Orbit2184
Epoch Day140.58334491
Epoch Year2022
RAAN295.0545
Inclination53.2181
Eccentricity0.0002012
Argument of Perigee33.2943
Mean Anonmoly198.202
Mean Motion15.08875827
Decay Rate-0.00057997
L11 50846U 22001AV 22140.58334491 -.00057997 00000+0 -36518-2 0 9997
L22 50846 53.2181 295.0545 0002012 33.2943 198.2020 15.08875827 21842

Live tracking and technical data element details for STARLINK-3308 (NORAD 50846). STARLINK-3308 can be tracked NOW for your location showing map with azimuth and elevation plus other details from your city location.

Track the satellite on the map from your city or location and see movement details for azimuth, elevation, latitude, longitude, range, height, and movement on the map or in text.







IsCatalogInMostPopularTable: catalog: 50846, numindb: 27
Update: records affected: 1



GetName: 50846 STARLINK-3308

Hit Count: updated at: Mon, 23 May 2022 21:41:52 GMT